Location: Waco, TX
(31.5480°N, 97.1670°W)
Time: 09:21:39
(UTC-05:00)

ISS - Pass Details

Date: 13 October 2019
Orbit: 411 x 421 km, 51.6° (Epoch: 18 October)

Event Time Altitude Azimuth Distance (km) Brightness Sun altitude
Rises 11:33:28 0° 249° (WSW) 2,349 -0.1 43.7°
Reaches altitude 10° 11:35:47 10° 262° (W) 1,487 -1.1 44.0°
Maximum altitude 11:38:39 26° 321° (NW) 860 -2.3 44.4°
Drops below altitude 10° 11:41:30 10° 21° (NNE) 1,488 -1.1 44.7°
Sets 11:43:49 0° 34° (NE) 2,351 -0.1 45.0°
